virtualACA

Welcome To Calgary International Airport CYYC

Hub Roster

Pilot Domicile Rank
Ethan Title - ACA1641CanadaChief Pilot
Friedrich Haselgruber - ACA1760GermanyChief Pilot
Graham Dawson - ACA2317CanadaChief Pilot
Roger Godden - ACA2339CanadaChief Pilot
John Croxford - ACA2492United KingdomChief Pilot
Hamir Hamir - ACA2906CanadaFirst Officer
Jake Moerland - ACA3058CanadaFirst Officer
Iain Chilvers - ACA3155United KingdomNew Hire

Current Vatsim Weather


CYYC 251700Z 22016KT 40SM BKN090 BKN190 BKN280 23/08 A2966 RMK AC5AC1CI1 ACC ASCOTD VIRGA SW SH DIST S SLP031 DENSITY ALT 5700FT
Calgary International Airport